datetime,pool elevation
1974-12-31,5129.0
1975-01-01,5129.0
1975-01-02,5129.0
1975-01-03,5129.0
1975-01-04,5129.0
1975-01-05,5129.0
1975-01-06,5129.0
1975-01-07,5129.0
1975-01-08,5129.0
1975-01-09,5129.0
1975-01-10,5129.0
1975-01-11,5129.0
1975-01-12,5129.0
1975-01-13,5129.0
1975-01-14,5129.0
1975-01-15,5129.0
1975-01-16,5129.0
1975-01-17,5129.0
1975-01-18,5129.0
1975-01-19,5129.0
1975-01-20,5129.0
1975-01-21,5129.0
1975-01-22,5129.0
1975-01-23,5129.0
1975-01-24,5129.0
1975-01-25,5129.0
1975-01-26,5129.0
1975-01-27,5129.0
1975-01-28,5129.0
1975-01-29,5129.0
1975-01-30,5129.0
1975-01-31,5129.0
1975-02-01,5129.0
1975-02-02,5129.0
1975-02-03,5129.0
1975-02-04,5129.0
1975-02-05,5129.0
1975-02-06,5129.0
1975-02-07,5129.0
1975-02-08,5129.0
1975-02-09,5129.0
1975-02-10,5129.0
1975-02-11,5129.0
1975-02-12,5129.0
1975-02-13,5129.0
1975-02-14,5129.0
1975-02-15,5129.0
1975-02-16,5129.0
1975-02-17,5129.0
1975-02-18,5129.0
1975-02-19,5129.0
1975-02-20,5129.0
1975-02-21,5129.0
1975-02-22,5129.0
1975-02-23,5129.0
1975-02-24,5129.0
1975-02-25,5129.0
1975-02-26,5129.0
1975-02-27,5129.0
1975-02-28,5129.0
1975-03-01,5129.0
1975-03-02,5129.0
1975-03-03,5129.0
1975-03-04,5129.0
1975-03-05,5129.0
1975-03-06,5129.0
1975-03-07,5129.0
1975-03-08,5133.0
1975-03-09,5140.8999
1975-03-10,5129.0
1975-03-11,5129.0
1975-03-12,5129.0
1975-03-13,5129.0
1975-03-14,5129.0
1975-03-15,5129.0
1975-03-16,5129.0
1975-03-17,5129.0
1975-03-18,5129.0
1975-03-19,5129.0
1975-03-20,5129.0
1975-03-21,5129.0
1975-03-22,5129.0
1975-03-23,5129.0
1975-03-24,5129.0
1975-03-25,5129.0
1975-03-26,5129.0
1975-03-27,5129.0
1975-03-28,5129.0
1975-03-29,5129.0
1975-03-30,5129.0
1975-03-31,5129.0
1975-04-01,5129.0
1975-04-02,5129.0
1975-04-03,5129.0
1975-04-04,5129.0
1975-04-05,5138.7002
1975-04-06,5140.2002
1975-04-07,5145.2998
1975-04-08,5147.2002
1975-04-09,5147.0
1975-04-10,5147.2002
1975-04-11,5147.1001
1975-04-12,5147.7002
1975-04-13,5150.8999
1975-04-14,5150.5
1975-04-15,5149.5
1975-04-16,5150.0
1975-04-17,5151.7998
1975-04-18,5152.8999
1975-04-19,5152.6001
1975-04-20,5152.1001
1975-04-21,5152.8999
1975-04-22,5154.7002
1975-04-23,5156.6001
1975-04-24,5159.1001
1975-04-25,5162.0
1975-04-26,5165.2002
1975-04-27,5166.7998
1975-04-28,5166.0
1975-04-29,5164.2002
1975-04-30,5161.2002
1975-05-01,5158.0
1975-05-02,5156.6001
1975-05-03,5155.6001
1975-05-04,5154.0
1975-05-05,5155.5
1975-05-06,5155.7002
1975-05-07,5155.5
1975-05-08,5154.2998
1975-05-09,5154.2002
1975-05-10,5153.7998
1975-05-11,5153.7002
1975-05-12,5154.2002
1975-05-13,5154.7002
1975-05-14,5155.7998
1975-05-15,5156.6001
1975-05-16,5158.1001
1975-05-17,5160.8999
1975-05-18,5163.1001
1975-05-19,5164.7998
1975-05-20,5166.0
1975-05-21,5166.7002
1975-05-22,5166.2998
1975-05-23,5163.7002
1975-05-24,5159.7998
1975-05-25,5156.2998
1975-05-26,5154.8999
1975-05-27,5152.7998
1975-05-28,5151.3999
1975-05-29,5151.7998
1975-05-30,5152.7002
1975-05-31,5153.0
1975-06-01,5152.6001
1975-06-02,5152.2998
1975-06-03,5152.3999
1975-06-04,5152.5
1975-06-05,5152.3999
1975-06-06,5152.2002
1975-06-07,5151.7998
1975-06-08,5151.1001
1975-06-09,5150.7998
1975-06-10,5151.1001
1975-06-11,5151.5
1975-06-12,5151.7002
1975-06-13,5151.6001
1975-06-14,5151.2002
1975-06-15,5150.6001
1975-06-16,5150.1001
1975-06-17,5149.7002
1975-06-18,5147.6001
1975-06-19,5136.5
1975-06-20,5136.5
1975-06-21,5136.5
1975-06-22,5136.5
1975-06-23,5136.5
1975-06-24,5136.5
1975-06-25,5136.5
1975-06-26,5136.5
1975-06-27,5136.5
1975-06-28,5136.5
1975-06-29,5136.5
1975-06-30,5136.5
1975-07-01,5136.5
1975-07-02,5136.5
1975-07-03,5136.5
1975-07-04,5136.5
1975-07-05,5136.5
1975-07-06,5136.5
1975-07-07,5136.5
1975-07-08,5136.5
1975-07-09,5136.5
1975-07-10,5136.5
1975-07-11,5136.5
1975-07-12,5141.0
1975-07-13,5152.0
1975-07-14,5150.8999
1975-07-15,5149.5
1975-07-16,5148.2002
1975-07-17,5147.0
1975-07-18,5136.5
1975-07-19,5136.5
1975-07-20,5136.5
1975-07-21,5136.5
1975-07-22,5136.5
1975-07-23,5136.5
1975-07-24,5136.5
1975-07-25,5136.5
1975-07-26,5136.5
1975-07-27,5136.5
1975-07-28,5136.5
1975-07-29,5136.5
1975-07-30,5136.5
1975-07-31,5136.5
1975-08-01,5136.5
1975-08-02,5136.5
1975-08-03,5136.5
1975-08-04,5136.5
1975-08-05,5136.5
1975-08-06,5136.5
1975-08-07,5136.5
1975-08-08,5136.5
1975-08-09,5136.5
1975-08-10,5136.5
1975-08-11,5136.5
1975-08-12,5136.5
1975-08-13,5152.8999
1975-08-14,5151.8999
1975-08-15,5151.2002
1975-08-16,5150.7998
1975-08-17,5150.2002
1975-08-18,5149.5
1975-08-19,5148.5
1975-08-20,5147.2002
1975-08-21,5149.3999
1975-08-22,5149.6001
1975-08-23,5149.1001
1975-08-24,5148.3999
1975-08-25,5147.0
1975-08-26,5143.2002
1975-08-27,5136.5
1975-08-28,5136.5
1975-08-29,5136.5
1975-08-30,5136.5
1975-08-31,5136.5
1975-09-01,5136.5
1975-09-02,5136.5
1975-09-03,5136.5
1975-09-04,5149.2998
1975-09-05,5151.6001
1975-09-06,5151.6001
1975-09-07,5150.8999
1975-09-08,5149.7998
1975-09-09,5149.7002
1975-09-10,5151.1001
1975-09-11,5151.3999
1975-09-12,5153.5
1975-09-13,5153.7998
1975-09-14,5153.8999
1975-09-15,5153.3999
1975-09-16,5151.1001
1975-09-17,5146.8999
1975-09-18,5136.5
1975-09-19,5136.5
1975-09-20,5136.5
1975-09-21,5136.5
1975-09-22,5136.5
1975-09-23,5136.5
1975-09-24,5136.5
1975-09-25,5136.5
1975-09-26,5136.5
1975-09-27,5136.5
1975-09-28,5136.5
1975-09-29,5136.5
1975-09-30,5136.5
1975-10-01,5136.5
1975-10-02,5136.5
1975-10-03,5136.5
1975-10-04,5136.5
1975-10-05,5136.5
1975-10-06,5136.5
1975-10-07,5136.5
1975-10-08,5136.5
1975-10-09,5136.5
1975-10-10,5136.5
1975-10-11,5136.5
1975-10-12,5136.5
1975-10-13,5136.5
1975-10-14,5136.5
1975-10-15,5136.5
1975-10-16,5136.5
1975-10-17,5136.5
1975-10-18,5136.5
1975-10-19,5136.5
1975-10-20,5136.5
1975-10-21,5136.5
1975-10-22,5136.5
1975-10-23,5136.5
1975-10-24,5136.5
1975-10-25,5136.5
1975-10-26,5136.5
1975-10-27,5136.5
1975-10-28,5136.5
1975-10-29,5136.5
1975-10-30,5136.5
1975-10-31,5136.5
1975-11-01,5136.5
1975-11-02,5136.5
1975-11-03,5136.5
1975-11-04,5136.5
1975-11-05,5136.5
1975-11-06,5136.5
1975-11-07,5136.5
1975-11-08,5136.5
1975-11-09,5136.5
1975-11-10,5136.5
1975-11-11,5136.5
1975-11-12,5136.5
1975-11-13,5136.5
1975-11-14,5136.5
1975-11-15,5136.5
1975-11-16,5136.5
1975-11-17,5136.5
1975-11-18,5136.5
1975-11-19,5136.5
1975-11-20,5136.5
1975-11-21,5136.5
1975-11-22,5136.5
1975-11-23,5136.5
1975-11-24,5136.5
1975-11-25,5136.5
1975-11-26,5136.5
1975-11-27,5136.5
1975-11-28,5136.5
1975-11-29,5136.5
1975-11-30,5136.5
1975-12-01,5136.5
1975-12-02,5136.5
1975-12-03,5136.5
1975-12-04,5136.5
1975-12-05,5136.5
1975-12-06,5136.5
1975-12-07,5136.5
1975-12-08,5136.5
1975-12-09,5136.5
1975-12-10,5136.5
1975-12-11,5136.5
1975-12-12,5136.5
1975-12-13,5136.5
1975-12-14,5136.5
1975-12-15,5136.5
1975-12-16,5136.5
1975-12-17,5136.5
1975-12-18,5136.5
1975-12-19,5136.5
1975-12-20,5136.5
1975-12-21,5136.5
1975-12-22,5136.5
1975-12-23,5136.5
1975-12-24,5136.5
1975-12-25,5136.5
1975-12-26,5136.5
1975-12-27,5136.5
1975-12-28,5136.5
1975-12-29,5136.5
1975-12-30,5136.5
1975-12-31,5136.5
1976-01-01,5136.5
1976-01-02,5136.5
1976-01-03,5136.5
1976-01-04,5136.5
1976-01-05,5136.5
1976-01-06,5136.5
1976-01-07,5136.5
1976-01-08,5136.5
1976-01-09,5136.5
1976-01-10,5136.5
1976-01-11,5136.5
1976-01-12,5136.5
1976-01-13,5136.5
1976-01-14,5136.5
1976-01-15,5136.5
1976-01-16,5136.5
1976-01-17,5136.5
1976-01-18,5136.5
1976-01-19,5136.5
1976-01-20,5136.5
1976-01-21,5136.5
1976-01-22,5136.5
1976-01-23,5136.5
1976-01-24,5136.5
1976-01-25,5136.5
1976-01-26,5136.5
1976-01-27,5136.5
1976-01-28,5136.5
1976-01-29,5136.5
1976-01-30,5136.5
1976-01-31,5136.5
1976-02-01,5136.5
1976-02-02,5136.5
1976-02-03,5136.5
1976-02-04,5136.5
1976-02-05,5136.5
1976-02-06,5136.5
1976-02-07,5136.5
1976-02-08,5136.5
1976-02-09,5136.5
1976-02-10,5136.5
1976-02-11,5136.5
1976-02-12,5136.5
1976-02-13,5136.5
1976-02-14,5136.5
1976-02-15,5136.5
1976-02-16,5136.5
1976-02-17,5136.5
1976-02-18,5136.5
1976-02-19,5136.5
1976-02-20,5136.5
1976-02-21,5136.5
1976-02-22,5136.5
1976-02-23,5136.5
1976-02-24,5136.5
1976-02-25,5136.5
1976-02-26,5136.5
1976-02-27,5136.5
1976-02-28,5136.5
1976-02-29,5136.5
1976-03-01,5136.5
1976-03-02,5136.5
1976-03-03,5136.5
1976-03-04,5136.5
1976-03-05,5136.5
1976-03-06,5136.5
1976-03-07,5136.5
1976-03-08,5136.5
1976-03-09,5136.5
1976-03-10,5136.5
1976-03-11,5136.5
1976-03-12,5136.5
1976-03-13,5136.5
1976-03-14,5136.5
1976-03-15,5136.5
1976-03-16,5136.5
1976-03-17,5136.5
1976-03-18,5136.5
1976-03-19,5136.5
1976-03-20,5136.5
1976-03-21,5136.5
1976-03-22,5136.5
1976-03-23,5136.5
1976-03-24,5136.5
1976-03-25,5136.5
1976-03-26,5136.5
1976-03-27,5136.5
1976-03-28,5136.5
1976-03-29,5136.5
1976-03-30,5136.5
1976-03-31,5136.5
1976-04-01,5136.5
1976-04-02,5136.5
1976-04-03,5136.5
1976-04-04,5136.5
1976-04-05,5136.5
1976-04-06,5136.5
1976-04-07,5136.5
1976-04-08,5136.5
1976-04-09,5136.5
1976-04-10,5136.5
1976-04-11,5136.5
1976-04-12,5136.5
1976-04-13,5136.5
1976-04-14,5136.5
1976-04-15,5144.5
1976-04-16,5147.1001
1976-04-17,5148.1001
1976-04-18,5148.3999
1976-04-19,5148.7002
1976-04-20,5149.2998
1976-04-21,5149.3999
1976-04-22,5149.5
1976-04-23,5149.3999
1976-04-24,5149.2998
1976-04-25,5149.1001
1976-04-26,5148.7998
1976-04-27,5148.8999
1976-04-28,5149.1001
1976-04-29,5149.3999
1976-04-30,5149.8999
1976-05-01,5150.3999
1976-05-02,5150.6001
1976-05-03,5150.2998
1976-05-04,5149.7002
1976-05-05,5149.2002
1976-05-06,5149.1001
1976-05-07,5149.5
1976-05-08,5151.1001
1976-05-09,5152.2998
1976-05-10,5152.6001
1976-05-11,5152.2998
1976-05-12,5151.7998
1976-05-13,5151.2002
1976-05-14,5150.3999
1976-05-15,5149.2998
1976-05-16,5147.1001
1976-05-17,5142.8999
1976-05-18,5136.5
1976-05-19,5136.5
1976-05-20,5136.5
1976-05-21,5136.5
1976-05-22,5136.5
1976-05-23,5136.5
1976-05-24,5136.5
1976-05-25,5136.5
1976-05-26,5136.5
1976-05-27,5136.5
1976-05-28,5136.5
1976-05-29,5136.5
1976-05-30,5136.5
1976-05-31,5136.5
1976-06-01,5136.5
1976-06-02,5136.5
1976-06-03,5136.5
1976-06-04,5136.5
1976-06-05,5136.5
1976-06-06,5136.5
1976-06-07,5136.5
1976-06-08,5136.5
1976-06-09,5136.5
1976-06-10,5136.5
1976-06-11,5136.5
1976-06-12,5136.5
1976-06-13,5136.5
1976-06-14,5136.5
1976-06-15,5136.5
1976-06-16,5136.5
1976-06-17,5136.5
1976-06-18,5136.5
1976-06-19,5136.5
1976-06-20,5136.5
1976-06-21,5136.5
1976-06-22,5136.5
1976-06-23,5136.5
1976-06-24,5136.5
1976-06-25,5136.5
1976-06-26,5136.5
1976-06-27,5136.5
1976-06-28,5136.5
1976-06-29,5136.5
1976-06-30,5136.5
1976-07-01,5136.5
1976-07-02,5136.5
1976-07-03,5136.5
1976-07-04,5136.5
1976-07-05,5136.5
1976-07-06,5136.5
1976-07-07,5136.5
1976-07-08,5136.5
1976-07-09,5136.5
1976-07-10,5136.5
1976-07-11,5136.5
1976-07-12,5136.5
1976-07-13,5136.5
1976-07-14,5136.5
1976-07-15,5136.5
1976-07-16,5136.5
1976-07-17,5136.5
1976-07-18,5136.5
1976-07-19,5136.5
1976-07-20,5136.5
1976-07-21,5136.5
1976-07-22,5136.5
1976-07-23,5136.5
1976-07-24,5136.5
1976-07-25,5136.5
1976-07-26,5136.5
1976-07-27,5136.5
1976-07-28,5136.5
1976-07-29,5136.5
1976-07-30,5136.5
1976-07-31,5136.5
1976-08-01,5136.5
1976-08-02,5136.5
1976-08-03,5145.0
1976-08-04,5136.5
1976-08-05,5136.5
1976-08-06,5136.5
1976-08-07,5136.5
1976-08-08,5136.5
1976-08-09,5136.5
1976-08-10,5136.5
1976-08-11,5136.5
1976-08-12,5136.5
1976-08-13,5136.5
1976-08-14,5136.5
1976-08-15,5136.5
1976-08-16,5136.5
1976-08-17,5136.5
1976-08-18,5136.5
1976-08-19,5147.7002
1976-08-20,5136.5
1976-08-21,5136.5
1976-08-22,5136.5
1976-08-23,5143.5
1976-08-24,5153.0
1976-08-25,5153.7002
1976-08-26,5148.8999
1976-08-27,5136.5
1976-08-28,5136.5
1976-08-29,5136.5
1976-08-30,5136.5
1976-08-31,5136.5
1976-09-01,5136.5
1976-09-02,5136.5
1976-09-03,5136.5
1976-09-04,5136.5
1976-09-05,5136.5
1976-09-06,5136.5
1976-09-07,5136.5
1976-09-08,5136.5
1976-09-09,5136.5
1976-09-10,5136.5
1976-09-11,5136.5
1976-09-12,5136.5
1976-09-13,5136.5
1976-09-14,5136.5
1976-09-15,5136.5
1976-09-16,5136.5
1976-09-17,5136.5
1976-09-18,5136.5
1976-09-19,5136.5
1976-09-20,5136.5
1976-09-21,5136.5
1976-09-22,5136.5
1976-09-23,5136.5
1976-09-24,5136.5
1976-09-25,5136.5
1976-09-26,5136.5
1976-09-27,5136.5
1976-09-28,5136.5
1976-09-29,5136.5
1976-09-30,5136.5
1976-10-01,5136.5
1976-10-02,5136.5
1976-10-03,5136.5
1976-10-04,5136.5
1976-10-05,5136.5
1976-10-06,5136.5
1976-10-07,5136.5
1976-10-08,5136.5
1976-10-09,5136.5
1976-10-10,5136.5
1976-10-11,5136.5
1976-10-12,5136.5
1976-10-13,5136.5
1976-10-14,5136.5
1976-10-15,5136.5
1976-10-16,5136.5
1976-10-17,5136.5
1976-10-18,5136.5
1976-10-19,5136.5
1976-10-20,5136.5
1976-10-21,5136.5
1976-10-22,5136.5
1976-10-23,5136.5
1976-10-24,5136.5
1976-10-25,5136.5
1976-10-26,5136.5
1976-10-27,5136.5
1976-10-28,5136.5
1976-10-29,5136.5
1976-10-30,5136.5
1976-10-31,5136.5
1976-11-01,5136.5
1976-11-02,5136.5
1976-11-03,5136.5
1976-11-04,5136.5
1976-11-05,5136.5
1976-11-06,5136.5
1976-11-07,5136.5
1976-11-08,5136.5
1976-11-09,5136.5
1976-11-10,5136.5
1976-11-11,5136.5
1976-11-12,5136.5
1976-11-13,5136.5
1976-11-14,5136.5
1976-11-15,5136.5
1976-11-16,5136.5
1976-11-17,5136.5
1976-11-18,5136.5
1976-11-19,5136.5
1976-11-20,5136.5
1976-11-21,5136.5
1976-11-22,5136.5
1976-11-23,5136.5
1976-11-24,5136.5
1976-11-25,5136.5
1976-11-26,5136.5
1976-11-27,5136.5
1976-11-28,5136.5
1976-11-29,5136.5
1976-11-30,5136.5
1976-12-01,5136.5
1976-12-02,5136.5
1976-12-03,5136.5
1976-12-04,5136.5
1976-12-05,5136.5
1976-12-06,5136.5
1976-12-07,5136.5
1976-12-08,5136.5
1976-12-09,5136.5
1976-12-10,5136.5
1976-12-11,5136.5
1976-12-12,5136.5
1976-12-13,5136.5
1976-12-14,5136.5
1976-12-15,5136.5
1976-12-16,5136.5
1976-12-17,5136.5
1976-12-18,5136.5
1976-12-19,5136.5
1976-12-20,5136.5
1976-12-21,5136.5
1976-12-22,5136.5
1976-12-23,5136.5
1976-12-24,5136.5
1976-12-25,5136.5
1976-12-26,5136.5
1976-12-27,5136.5
1976-12-28,5136.5
1976-12-29,5136.5
1976-12-30,5136.5
1976-12-31,5136.5
1977-01-01,5136.5
1977-01-02,5136.5
1977-01-03,5136.5
1977-01-04,5136.5
1977-01-05,5136.5
1977-01-06,5136.5
1977-01-07,5136.5
1977-01-08,5136.5
1977-01-09,5136.5
1977-01-10,5136.5
1977-01-11,5136.5
1977-01-12,5136.5
1977-01-13,5136.5
1977-01-14,5136.5
1977-01-15,5136.5
1977-01-16,5136.5
1977-01-17,5136.5
1977-01-18,5136.5
1977-01-19,5136.5
1977-01-20,5136.5
1977-01-21,5136.5
1977-01-22,5136.5
1977-01-23,5136.5
1977-01-24,5136.5
1977-01-25,5136.5
1977-01-26,5136.5
1977-01-27,5136.5
1977-01-28,5136.5
1977-01-29,5136.5
1977-01-30,5136.5
1977-01-31,5136.5
1977-02-01,5136.5
1977-02-02,5136.5
1977-02-03,5136.5
1977-02-04,5136.5
1977-02-05,5136.5
1977-02-06,5136.5
1977-02-07,5136.5
1977-02-08,5136.5
1977-02-09,5136.5
1977-02-10,5136.5
1977-02-11,5136.5
1977-02-12,5136.5
1977-02-13,5136.5
1977-02-14,5136.5
1977-02-15,5136.5
1977-02-16,5136.5
1977-02-17,5136.5
1977-02-18,5136.5
1977-02-19,5136.5
1977-02-20,5136.5
1977-02-21,5136.5
1977-02-22,5136.5
1977-02-23,5136.5
1977-02-24,5136.5
1977-02-25,5136.5
1977-02-26,5136.5
1977-02-27,5136.5
1977-02-28,5136.5
1977-03-01,5136.5
1977-03-02,5136.5
1977-03-03,5136.5
1977-03-04,5136.5
1977-03-05,5136.5
1977-03-06,5136.5
1977-03-07,5136.5
1977-03-08,5136.5
1977-03-09,5136.5
1977-03-10,5136.5
1977-03-11,5136.5
1977-03-12,5136.5
1977-03-13,5136.5
1977-03-14,5136.5
1977-03-15,5136.5
1977-03-16,5136.5
1977-03-17,5136.5
1977-03-18,5136.5
1977-03-19,5136.5
1977-03-20,5136.5
1977-03-21,5136.5
1977-03-22,5136.5
1977-03-23,5136.5
1977-03-24,5136.5
1977-03-25,5136.5
1977-03-26,5136.5
1977-03-27,5136.5
1977-03-28,5136.5
1977-03-29,5136.5
1977-03-30,5137.1001
1977-03-31,5137.0
1977-04-01,5138.3999
1977-04-02,5139.6001
1977-04-03,5141.7998
1977-04-04,5137.3999
1977-04-05,5136.5
1977-04-06,5136.5
1977-04-07,5136.5
1977-04-08,5138.8999
1977-04-09,5147.7002
1977-04-10,5149.8999
1977-04-11,5150.7002
1977-04-12,5151.2002
1977-04-13,5151.2998
1977-04-14,5157.6001
1977-04-15,5151.2002
1977-04-16,5151.5
1977-04-17,5151.2998
1977-04-18,5151.0
1977-04-19,5151.5
1977-04-20,5151.7002
1977-04-21,5151.5
1977-04-22,5151.2002
1977-04-23,5150.6001
1977-04-24,5150.0
1977-04-25,5149.3999
1977-04-26,5149.2998
1977-04-27,5149.2002
1977-04-28,5149.0
1977-04-29,5148.7998
1977-04-30,5148.5
1977-05-01,5147.8999
1977-05-02,5146.7998
1977-05-03,5145.0
1977-05-04,5141.1001
1977-05-05,5136.5
1977-05-06,5136.5
1977-05-07,5136.5
1977-05-08,5136.5
1977-05-09,5136.5
1977-05-10,5136.5
1977-05-11,5136.5
1977-05-12,5136.5
1977-05-13,5138.3999
1977-05-14,5137.3999
1977-05-15,5142.2998
1977-05-16,5137.3999
1977-05-17,5137.5
1977-05-18,5138.3999
1977-05-19,5136.5
1977-05-20,5136.5
1977-05-21,5136.5
1977-05-22,5136.5
1977-05-23,5136.5
1977-05-24,5136.5
1977-05-25,5136.5
1977-05-26,5136.5
1977-05-27,5136.5
1977-05-28,5136.5
1977-05-29,5136.5
1977-05-30,5136.5
1977-05-31,5136.5
1977-06-01,5136.5
1977-06-02,5136.5
1977-06-03,5136.5
1977-06-04,5149.5
1977-06-05,5149.3999
1977-06-06,5144.8999
1977-06-07,5136.5
1977-06-08,5136.5
1977-06-09,5136.5
1977-06-10,5136.5
1977-06-11,5136.5
1977-06-12,5136.5
1977-06-13,5136.5
1977-06-14,5136.5
1977-06-15,5136.5
1977-06-16,5136.5
1977-06-17,5136.5
1977-06-18,5136.5
1977-06-19,5136.5
1977-06-20,5136.5
1977-06-21,5136.5
1977-06-22,5136.5
1977-06-23,5136.5
1977-06-24,5136.5
1977-06-25,5136.5
1977-06-26,5136.5
1977-06-27,5136.5
1977-06-28,5136.5
1977-06-29,5136.5
1977-06-30,5136.5
1977-07-01,5136.5
1977-07-02,5136.5
1977-07-03,5136.5
1977-07-04,5136.5
1977-07-05,5136.5
1977-07-06,5136.5
1977-07-07,5136.5
1977-07-08,5136.5
1977-07-09,5136.5
1977-07-10,5136.5
1977-07-11,5136.5
1977-07-12,5136.5
1977-07-13,5136.5
1977-07-14,5136.5
1977-07-15,5136.5
1977-07-16,5136.5
1977-07-17,5136.5
1977-07-18,5136.5
1977-07-19,5136.5
1977-07-20,5136.5
1977-07-21,5144.3999
1977-07-22,5154.2002
1977-07-23,5151.7002
1977-07-24,5151.6001
1977-07-25,5151.6001
1977-07-26,5152.0
1977-07-27,5150.2002
1977-07-28,5136.5
1977-07-29,5136.5
1977-07-30,5136.5
1977-07-31,5136.5
1977-08-01,5136.5
1977-08-02,5136.5
1977-08-03,5136.5
1977-08-04,5136.5
1977-08-05,5136.5
1977-08-06,5136.5
1977-08-07,5136.5
1977-08-08,5136.5
1977-08-09,5136.5
1977-08-10,5136.5
1977-08-11,5136.5
1977-08-12,5150.1001
1977-08-13,5148.6001
1977-08-14,5136.5
1977-08-15,5136.5
1977-08-16,5149.2002
1977-08-17,5149.2998
1977-08-18,5150.5
1977-08-19,5150.7998
1977-08-20,5150.2002
1977-08-21,5151.5
1977-08-22,5151.1001
1977-08-23,5150.0
1977-08-24,5147.1001
1977-08-25,5136.5
1977-08-26,5136.5
1977-08-27,5136.5
1977-08-28,5136.5
1977-08-29,5136.5
1977-08-30,5136.5
1977-08-31,5136.5
1977-09-01,5136.5
1977-09-02,5136.5
1977-09-03,5136.5
1977-09-04,5136.5
1977-09-05,5136.5
1977-09-06,5136.5
1977-09-07,5136.5
1977-09-08,5136.5
1977-09-09,5136.5
1977-09-10,5136.5
1977-09-11,5136.5
1977-09-12,5136.5
1977-09-13,5136.5
1977-09-14,5136.5
1977-09-15,5136.5
1977-09-16,5136.5
1977-09-17,5136.5
1977-09-18,5136.5
1977-09-19,5136.5
1977-09-20,5136.5
1977-09-21,5136.5
1977-09-22,5136.5
1977-09-23,5136.5
1977-09-24,5136.5
1977-09-25,5136.5
1977-09-26,5136.5
1977-09-27,5136.5
1977-09-28,5136.5
1977-09-29,5136.5
1977-09-30,5136.5
1977-10-01,5136.5
1977-10-02,5136.5
1977-10-03,5136.5
1977-10-04,5136.5
1977-10-05,5136.5
1977-10-06,5136.5
1977-10-07,5136.5
1977-10-08,5136.5
1977-10-09,5136.5
1977-10-10,5136.5
1977-10-11,5136.5
1977-10-12,5136.5
1977-10-13,5136.5
1977-10-14,5136.5
1977-10-15,5136.5
1977-10-16,5136.5
1977-10-17,5136.5
1977-10-18,5136.5
1977-10-19,5136.5
1977-10-20,5136.5
1977-10-21,5136.5
1977-10-22,5136.5
1977-10-23,5136.5
1977-10-24,5136.5
1977-10-25,5136.5
1977-10-26,5136.5
1977-10-27,5136.5
1977-10-28,5136.5
1977-10-29,5136.5
1977-10-30,5136.5
1977-10-31,5136.5
1977-11-01,5136.5
1977-11-02,5136.5
1977-11-03,5136.5
1977-11-04,5136.5
1977-11-05,5136.5
1977-11-06,5136.5
1977-11-07,5136.5
1977-11-08,5136.5
1977-11-09,5136.5
1977-11-10,5136.5
1977-11-11,5136.5
1977-11-12,5136.5
1977-11-13,5136.5
1977-11-14,5136.5
1977-11-15,5136.5
1977-11-16,5136.5
1977-11-17,5136.5
1977-11-18,5136.5
1977-11-19,5136.5
1977-11-20,5136.5
1977-11-21,5136.5
1977-11-22,5136.5
1977-11-23,5136.5
1977-11-24,5136.5
1977-11-25,5136.5
1977-11-26,5136.5
1977-11-27,5136.5
1977-11-28,5136.5
1977-11-29,5136.5
1977-11-30,5136.5
1977-12-01,5136.5
1977-12-02,5136.5
1977-12-03,5136.5
1977-12-04,5136.5
1977-12-05,5136.5
1977-12-06,5136.5
1977-12-07,5136.5
1977-12-08,5136.5
1977-12-09,5136.5
1977-12-10,5136.5
1977-12-11,5136.5
1977-12-12,5136.5
1977-12-13,5136.5
1977-12-14,5136.5
1977-12-15,5136.5
1977-12-16,5136.5
1977-12-17,5136.5
1977-12-18,5136.5
1977-12-19,5136.5
1977-12-20,5136.5
1977-12-21,5136.5
1977-12-22,5136.5
1977-12-23,5136.5
1977-12-24,5136.5
1977-12-25,5136.5
1977-12-26,5136.5
1977-12-27,5136.5
1977-12-28,5136.5
1977-12-29,5136.5
1977-12-30,5136.5
1977-12-31,5136.5
1978-01-01,5136.5
1978-01-02,5136.5
1978-01-03,5136.5
1978-01-04,5136.5
1978-01-05,5136.5
1978-01-06,5136.5
1978-01-07,5136.5
1978-01-08,5136.5
1978-01-09,5136.5
1978-01-10,5136.5
1978-01-11,5136.5
1978-01-12,5136.5
1978-01-13,5136.5
1978-01-14,5136.5
1978-01-15,5136.5
1978-01-16,5136.5
1978-01-17,5136.5
1978-01-18,5136.5
1978-01-19,5136.5
1978-01-20,5136.5
1978-01-21,5136.5
1978-01-22,5136.5
1978-01-23,5136.5
1978-01-24,5136.5
1978-01-25,5136.5
1978-01-26,5136.5
1978-01-27,5136.5
1978-01-28,5136.5
1978-01-29,5136.5
1978-01-30,5136.5
1978-01-31,5136.5
1978-02-01,5136.5
1978-02-02,5136.5
1978-02-03,5136.5
1978-02-04,5136.5
1978-02-05,5136.5
1978-02-06,5136.5
1978-02-07,5136.5
1978-02-08,5136.5
1978-02-09,5136.5
1978-02-10,5136.5
1978-02-11,5136.5
1978-02-12,5136.5
1978-02-13,5136.5
1978-02-14,5136.5
1978-02-15,5136.5
1978-02-16,5136.5
1978-02-17,5136.5
1978-02-18,5136.5
1978-02-19,5136.5
1978-02-20,5136.5
1978-02-21,5136.5
1978-02-22,5136.5
1978-02-23,5136.5
1978-02-24,5136.5
1978-02-25,5136.5
1978-02-26,5136.5
1978-02-27,5136.5
1978-02-28,5136.5
1978-03-01,5136.5
1978-03-02,5136.5
1978-03-03,5136.5
1978-03-04,5136.5
1978-03-05,5136.5
1978-03-06,5136.5
1978-03-07,5136.5
1978-03-08,5136.5
1978-03-09,5136.5
1978-03-10,5136.5
1978-03-11,5136.5
1978-03-12,5136.5
1978-03-13,5136.5
1978-03-14,5136.5
1978-03-15,5136.5
1978-03-16,5136.5
1978-03-17,5136.5
1978-03-18,5136.5
1978-03-19,5136.5
1978-03-20,5136.5
1978-03-21,5136.5
1978-03-22,5136.5
1978-03-23,5136.5
1978-03-24,5136.5
1978-03-25,5136.5
1978-03-26,5136.5
1978-03-27,5144.5
1978-03-28,5147.7998
1978-03-29,5149.2002
1978-03-30,5151.1001
1978-03-31,5153.3999
1978-04-01,5155.8999
1978-04-02,5157.0
1978-04-03,5156.3999
1978-04-04,5154.2998
1978-04-05,5153.2002
1978-04-06,5153.1001
1978-04-07,5152.8999
1978-04-08,5152.8999
1978-04-09,5153.1001
1978-04-10,5153.0
1978-04-11,5152.6001
1978-04-12,5152.0
1978-04-13,5151.8999
1978-04-14,5152.2002
1978-04-15,5152.0
1978-04-16,5151.7002
1978-04-17,5151.7002
1978-04-18,5151.7002
1978-04-19,5151.8999
1978-04-20,5152.1001
1978-04-21,5152.2002
1978-04-22,5152.2998
1978-04-23,5152.3999
1978-04-24,5152.2002
1978-04-25,5152.1001
1978-04-26,5152.1001
1978-04-27,5152.2002
1978-04-28,5152.3999
1978-04-29,5152.6001
1978-04-30,5152.5
1978-05-01,5152.3999
1978-05-02,5154.1001
1978-05-03,5154.0
1978-05-04,5152.2998
1978-05-05,5151.7998
1978-05-06,5153.2998
1978-05-07,5153.8999
1978-05-08,5153.0
1978-05-09,5152.2002
1978-05-10,5152.5
1978-05-11,5152.6001
1978-05-12,5152.6001
1978-05-13,5152.7998
1978-05-14,5153.0
1978-05-15,5153.2998
1978-05-16,5152.8999
1978-05-17,5152.3999
1978-05-18,5151.5
1978-05-19,5150.1001
1978-05-20,5147.6001
1978-05-21,5143.2998
1978-05-22,5148.3999
1978-05-23,5149.2998
1978-05-24,5149.5
1978-05-25,5150.3999
1978-05-26,5151.0
1978-05-27,5151.2002
1978-05-28,5151.2002
1978-05-29,5151.0
1978-05-30,5150.5
1978-05-31,5150.1001
1978-06-01,5149.6001
1978-06-02,5149.2002
1978-06-03,5148.7002
1978-06-04,5147.3999
1978-06-05,5144.1001
1978-06-06,5146.2998
1978-06-07,5147.2998
1978-06-08,5148.1001
1978-06-09,5147.0
1978-06-10,5140.6001
1978-06-11,5145.0
1978-06-12,5145.0
1978-06-13,5151.3999
1978-06-14,5136.5
1978-06-15,5136.5
1978-06-16,5136.5
1978-06-17,5136.5
1978-06-18,5136.5
1978-06-19,5136.5
1978-06-20,5136.5
1978-06-21,5136.5
1978-06-22,5136.5
1978-06-23,5136.5
1978-06-24,5136.5
1978-06-25,5136.5
1978-06-26,5136.5
1978-06-27,5136.5
1978-06-28,5136.5
1978-06-29,5147.6001
1978-06-30,5136.5
1978-07-01,5136.5
1978-07-02,5136.5
1978-07-03,5136.5
1978-07-04,5136.5
1978-07-05,5136.5
1978-07-06,5136.5
1978-07-07,5136.5
1978-07-08,5136.5
1978-07-09,5136.5
1978-07-10,5136.5
1978-07-11,5136.5
1978-07-12,5136.5
1978-07-13,5136.5
1978-07-14,5136.5
1978-07-15,5136.5
1978-07-16,5136.5